TimeEDT,TemperatureF,Dew PointF,Humidity,Sea Level PressureIn,VisibilityMPH,Wind Direction,Wind SpeedMPH,Gust SpeedMPH,PrecipitationIn,Events,Conditions,WindDirDegrees,DateUTC
12:51 AM,55.9,52.0,87,29.88,6.0,WSW,6.9,-,0.00,,Overcast,250,2013-04-01 04:51:00
1:51 AM,57.0,54.0,89,29.88,7.0,WNW,6.9,-,0.02,,Overcast,290,2013-04-01 05:51:00
2:27 AM,57.2,55.4,94,29.88,9.0,West,8.1,-,N/A,,Overcast,280,2013-04-01 06:27:00
2:42 AM,57.2,55.4,94,29.87,9.0,WNW,4.6,-,N/A,,Overcast,290,2013-04-01 06:42:00
2:51 AM,57.0,54.0,89,29.88,8.0,West,8.1,-,N/A,,Overcast,270,2013-04-01 06:51:00
3:51 AM,57.0,54.0,89,29.85,10.0,West,5.8,-,N/A,,Overcast,280,2013-04-01 07:51:00
4:29 AM,53.6,51.8,94,29.85,1.8,WSW,3.5,-,N/A,,Mostly Cloudy,250,2013-04-01 08:29:00
4:39 AM,53.6,51.8,94,29.85,2.0,SW,5.8,-,N/A,,Scattered Clouds,230,2013-04-01 08:39:00
4:51 AM,54.0,52.0,93,29.85,2.5,WSW,4.6,-,N/A,,Scattered Clouds,240,2013-04-01 08:51:00
5:22 AM,53.6,51.8,94,29.84,3.0,SW,4.6,-,N/A,,Partly Cloudy,220,2013-04-01 09:22:00
5:30 AM,53.6,51.8,94,29.84,2.5,SW,4.6,-,N/A,,Scattered Clouds,220,2013-04-01 09:30:00
5:49 AM,53.6,51.8,94,29.84,3.0,WSW,3.5,-,N/A,,Partly Cloudy,250,2013-04-01 09:49:00
5:51 AM,54.0,52.0,93,29.83,3.0,WSW,3.5,-,N/A,,Partly Cloudy,250,2013-04-01 09:51:00
5:59 AM,53.6,51.8,94,29.84,2.5,SSW,3.5,-,N/A,,Partly Cloudy,210,2013-04-01 09:59:00
6:07 AM,53.6,51.8,94,29.85,1.5,SSW,3.5,-,N/A,,Partly Cloudy,210,2013-04-01 10:07:00
6:22 AM,53.6,51.8,94,29.85,2.5,SSW,3.5,-,N/A,,Mostly Cloudy,200,2013-04-01 10:22:00
6:33 AM,53.6,51.8,94,29.86,3.0,South,4.6,-,N/A,,Mostly Cloudy,190,2013-04-01 10:33:00
6:51 AM,53.1,52.0,96,29.86,4.0,Calm,Calm,-,N/A,,Overcast,0,2013-04-01 10:51:00
7:02 AM,53.6,51.8,94,29.86,1.8,Calm,Calm,-,N/A,,Overcast,0,2013-04-01 11:02:00
7:31 AM,55.4,53.6,94,29.86,2.0,SW,3.5,-,N/A,,Mostly Cloudy,230,2013-04-01 11:31:00
7:40 AM,55.4,53.6,94,29.86,1.5,SW,3.5,-,N/A,,Mostly Cloudy,230,2013-04-01 11:40:00
7:51 AM,54.0,52.0,93,29.87,1.2,SW,3.5,-,N/A,,Mostly Cloudy,220,2013-04-01 11:51:00
7:53 AM,53.6,51.8,94,29.87,1.5,SW,3.5,-,N/A,,Mostly Cloudy,220,2013-04-01 11:53:00
8:03 AM,55.4,51.8,88,29.88,1.8,West,3.5,-,N/A,,Mostly Cloudy,260,2013-04-01 12:03:00
8:09 AM,57.2,55.4,94,29.87,3.0,West,8.1,-,N/A,,Mostly Cloudy,280,2013-04-01 12:09:00
8:20 AM,57.2,55.4,94,29.88,10.0,West,6.9,-,N/A,,Mostly Cloudy,270,2013-04-01 12:20:00
8:51 AM,57.0,55.0,93,29.88,4.0,WSW,5.8,-,N/A,,Overcast,250,2013-04-01 12:51:00
9:01 AM,55.4,53.6,94,29.87,2.5,WSW,5.8,-,N/A,,Overcast,240,2013-04-01 13:01:00
9:17 AM,57.2,55.4,94,29.87,3.0,WSW,5.8,-,N/A,,Mostly Cloudy,250,2013-04-01 13:17:00
9:51 AM,55.0,52.0,89,29.87,3.0,Calm,Calm,-,N/A,,Scattered Clouds,0,2013-04-01 13:51:00
10:48 AM,57.2,53.6,88,29.89,5.0,WSW,9.2,-,N/A,,Mostly Cloudy,240,2013-04-01 14:48:00
10:51 AM,55.9,52.0,87,29.89,5.0,WSW,9.2,-,N/A,,Overcast,240,2013-04-01 14:51:00
10:59 AM,55.4,51.8,88,29.89,5.0,WSW,8.1,-,N/A,,Overcast,240,2013-04-01 14:59:00
11:51 AM,57.0,54.0,89,29.88,5.0,SW,9.2,-,0.00,,Overcast,230,2013-04-01 15:51:00
12:35 PM,57.2,53.6,88,29.86,5.0,WSW,8.1,-,N/A,,Overcast,240,2013-04-01 16:35:00
12:47 PM,57.2,53.6,88,29.86,6.0,SW,8.1,-,N/A,,Overcast,230,2013-04-01 16:47:00
12:51 PM,57.0,53.1,87,29.86,6.0,SW,8.1,-,N/A,,Overcast,230,2013-04-01 16:51:00
1:21 PM,57.2,53.6,88,29.86,6.0,WSW,9.2,-,N/A,,Overcast,250,2013-04-01 17:21:00
1:35 PM,59.0,55.4,88,29.85,6.0,West,8.1,-,N/A,,Overcast,270,2013-04-01 17:35:00
1:51 PM,57.9,55.0,90,29.85,5.0,West,5.8,-,N/A,,Overcast,260,2013-04-01 17:51:00
2:29 PM,57.2,53.6,88,29.84,5.0,WSW,8.1,-,N/A,,Overcast,240,2013-04-01 18:29:00
2:51 PM,59.0,55.0,87,29.83,5.0,WSW,4.6,-,N/A,,Overcast,240,2013-04-01 18:51:00
3:51 PM,60.1,55.0,83,29.84,10.0,WNW,8.1,-,N/A,,Mostly Cloudy,300,2013-04-01 19:51:00
4:15 PM,60.8,55.4,82,29.83,10.0,WNW,5.8,-,N/A,,Overcast,290,2013-04-01 20:15:00
4:51 PM,61.0,55.0,81,29.82,6.0,WSW,5.8,-,N/A,,Haze,240,2013-04-01 20:51:00
5:51 PM,59.0,54.0,83,29.82,8.0,WSW,6.9,-,N/A,,Partly Cloudy,240,2013-04-01 21:51:00
6:51 PM,57.9,54.0,87,29.84,8.0,WSW,6.9,-,N/A,,Clear,240,2013-04-01 22:51:00
7:51 PM,53.1,51.1,93,29.85,3.0,Calm,Calm,-,N/A,,Clear,0,2013-04-01 23:51:00
8:51 PM,54.0,52.0,93,29.86,3.0,SW,5.8,-,N/A,,Clear,230,2013-04-02 00:51:00
9:51 PM,54.0,52.0,93,29.87,5.0,WSW,8.1,-,N/A,,Clear,240,2013-04-02 01:51:00
10:51 PM,55.0,53.1,93,29.88,5.0,SW,9.2,-,N/A,,Clear,230,2013-04-02 02:51:00
11:51 PM,57.0,55.0,93,29.90,8.0,West,9.2,16.1,N/A,,Clear,280,2013-04-02 03:51:00